Eau Claire, WI

12:02 PM CST on December 14, 2017 (GMT -0600)
Chippewa Valley Regional

Weather History for KEAU - August, 2013

Change the Weather History Date:

Friday, August 30, 2013

  Actual Average Record
Temperature  
Mean Temperature 76 °F 67 °F  
Max Temperature 86 °F 78 °F 97 °F (1941)
Min Temperature 66 °F 56 °F 36 °F (1915)
Degree Days  
Heating Degree Days 0 2  
Month to date heating degree days 12 26  
Since 1 June heating degree days 101 99  
Since 1 July heating degree days 38 37  
Cooling Degree Days 11 4  
Month to date cooling degree days 194 157  
Year to date cooling degree days 558 523  
Since 1 June cooling degree days 526 491  
Growing Degree Days 27 (Base 50)    
Moisture  
Dew Point 67 °F    
Average Humidity 69    
Maximum Humidity 94    
Minimum Humidity 44    
Precipitation  
Precipitation T in 0.13 in 2.04 in (1962)
Month to date precipitation 1.09 4.34  
Year to date precipitation 27.64 21.99  
Snow  
Snow 0.00 in 0.00 in 0.00 in ()
Month to date snowfall 0.0 0.0  
Since 1 June snowfall 0.0 0.0  
Since 1 July snowfall 0.0 0.0  
Snow Depth 0.00 in    
Sea Level Pressure  
Sea Level Pressure 29.85 in    
Wind  
Wind Speed 7 mph (NNE)    
Max Wind Speed 17 mph    
Max Gust Speed 21 mph    
Visibility 10 miles    
Events      
T = Trace of Precipitation, MM = Missing Value Source: NWS Daily Summary

Daily Weather History Graph

Daily Weather History Graph

Search for Another Location

Airport or City:

Trip Planner

Search our weather history database for the weather conditions in past years. The results will help you decide how hot, cold, wet, or windy it might be!

Date:

Astronomy

Aug. 30, 2013 Rise Set
Actual Time 6:26 AM CDT 7:46 PM CDT
Civil Twilight 5:55 AM CDT 8:16 PM CDT
Nautical Twilight 5:19 AM CDT 8:52 PM CDT
Astronomical Twilight 4:40 AM CDT 9:31 PM CDT
Moon 12:57 AM CDT (8/30) 4:09 PM CDT (8/30)
Length of Visible Light 14h 20m
Length of Day
13h 19m
Waning Crescent, 29% of the Moon is Illuminated
Aug 30
Waning Crescent
Sep 5
New
Sep 12
First Quarter
Sep 19
Full
Sep 26
Last Quarter

Hourly Weather History & Observations

Time (CDT) Temp. Heat Index Dew Point Humidity Pressure Visibility Wind Dir Wind Speed Gust Speed Precip Events Conditions
12:56 AM 80.1 °F 84.5 °F 73.9 °F 81% 29.83 in 10.0 mi SSW 12.7 mph - N/A   Clear
1:56 AM 80.1 °F 84.5 °F 73.9 °F 81% 29.83 in 10.0 mi SW 9.2 mph - N/A   Clear
2:56 AM 78.1 °F - 73.9 °F 87% 29.79 in 10.0 mi SSW 8.1 mph - 0.00 in   Mostly Cloudy
3:56 AM 75.9 °F - 73.0 °F 91% 29.80 in 9.0 mi Calm Calm - 0.00 in   Scattered Clouds
4:56 AM 75.0 °F - 72.0 °F 90% 29.79 in 10.0 mi SSW 3.5 mph - 0.00 in   Partly Cloudy
5:56 AM 73.0 °F - 72.0 °F 96% 29.79 in 7.0 mi SSW 3.5 mph - N/A   Clear
6:56 AM 75.0 °F - 72.0 °F 90% 29.80 in 9.0 mi Calm Calm - N/A   Overcast
7:52 AM 75.2 °F - 71.6 °F 89% 29.83 in 10.0 mi Calm Calm - N/A   Mostly Cloudy
7:56 AM 75.0 °F - 72.0 °F 90% 29.81 in 10.0 mi Calm Calm - N/A   Mostly Cloudy
8:56 AM 79.0 °F - 71.1 °F 77% 29.83 in 10.0 mi North 5.8 mph - N/A   Scattered Clouds
9:23 AM 78.8 °F - 69.8 °F 74% 29.85 in 10.0 mi North 9.2 mph - N/A   Mostly Cloudy
9:56 AM 78.1 °F - 70.0 °F 76% 29.84 in 10.0 mi NNE 8.1 mph - N/A   Overcast
10:19 AM 80.6 °F 83.9 °F 69.8 °F 70% 29.87 in 10.0 mi North 10.4 mph 17.3 mph N/A   Mostly Cloudy
10:56 AM 79.0 °F - 69.1 °F 72% 29.86 in 10.0 mi North 13.8 mph 18.4 mph N/A   Mostly Cloudy
11:13 AM 80.6 °F 83.2 °F 68.0 °F 65% 29.88 in 10.0 mi NNE 11.5 mph - N/A   Mostly Cloudy
11:56 AM 81.0 °F 82.7 °F 64.9 °F 58% 29.88 in 10.0 mi NNE 11.5 mph 19.6 mph N/A   Partly Cloudy
12:56 PM 82.0 °F 83.4 °F 64.0 °F 54% 29.87 in 10.0 mi North 11.5 mph 18.4 mph N/A   Mostly Cloudy
1:56 PM 82.9 °F 84.0 °F 63.0 °F 51% 29.87 in 10.0 mi NE 9.2 mph 18.4 mph N/A   Mostly Cloudy
2:56 PM 84.9 °F 86.6 °F 64.9 °F 51% 29.86 in 10.0 mi North 9.2 mph 17.3 mph N/A   Mostly Cloudy
3:56 PM 84.9 °F 85.4 °F 62.1 °F 46% 29.85 in 10.0 mi NNE 11.5 mph 19.6 mph N/A   Clear
4:56 PM 84.9 °F 85.9 °F 63.0 °F 48% 29.84 in 10.0 mi North 8.1 mph - N/A   Clear
5:56 PM 84.0 °F 84.4 °F 61.0 °F 46% 29.85 in 10.0 mi NNE 9.2 mph - N/A   Clear
6:56 PM 81.0 °F 81.7 °F 61.0 °F 50% 29.85 in 10.0 mi NE 9.2 mph - N/A   Clear
7:56 PM 75.9 °F - 61.0 °F 60% 29.86 in 10.0 mi NE 5.8 mph - N/A   Clear
8:56 PM 73.0 °F - 62.1 °F 68% 29.88 in 10.0 mi NE 3.5 mph - N/A   Clear
9:56 PM 73.0 °F - 62.1 °F 68% 29.88 in 10.0 mi ENE 9.2 mph - N/A   Clear
10:56 PM 70.0 °F - 63.0 °F 78% 29.89 in 10.0 mi NE 8.1 mph - N/A   Clear
11:56 PM 68.0 °F - 63.0 °F 84% 29.88 in 10.0 mi ENE 6.9 mph - N/A   Clear